Location: Zagreb
(45.8000°N, 16.0000°E)
Time: 12:06:10
(UTC+01:00)

Vanguard 1 Rocket - Pass Details

Date: 04 October 2020
Orbit: 656 x 4221 km, 34.3° (Epoch: 28 October)

Event Time Altitude Azimuth Distance (km) Brightness Sun altitude
Rises 20:45:26 0° 267° (W) 5,477 12.5 -24.2°
Reaches altitude 10° 20:48:29 10° 262° (W) 4,849 11.9 -24.7°
Maximum altitude 21:03:06 53° 192° (SSW) 3,875 10.3 -27.0°
Enters shadow 21:14:43 33° 139° (SE) 5,374 10.7 -28.9°
Drops below altitude 10° 21:26:41 10° 125° (SE) 7,412 - -30.7°
Sets 21:32:50 0° 121° (ESE) 8,439 - -31.7°
